Juneau, WI

12:55 AM CST on February 07, 2016 (GMT -0600)
Dodge County

Weather History for KUNU - March, 2015

Change the Weather History Date:

Wednesday, March 25, 2015

  Actual Average Record
Temperature  
Mean Temperature 38 °F -  
Max Temperature 44 °F 44 °F 75 °F (2007)
Min Temperature 31 °F 29 °F 5 °F (1974)
Degree Days  
Heating Degree Days 28    
Moisture  
Dew Point 30 °F    
Average Humidity 82    
Maximum Humidity 99    
Minimum Humidity 60    
Precipitation  
Precipitation 0.20 in - - ()
Sea Level Pressure  
Sea Level Pressure 29.89 in    
Wind  
Wind Speed 12 mph (SW)    
Max Wind Speed 25 mph    
Max Gust Speed 33 mph    
Visibility 7 miles    
Events Rain , Snow    
Averages and records for this station are not official NWS values.
T = Trace of Precipitation, MM = Missing Value Source: NWS Daily Summary

Daily Weather History Graph

Daily Weather History Graph

Search for Another Location

Airport or City:

Trip Planner

Search our weather history database for the weather conditions in past years. The results will help you decide how hot, cold, wet, or windy it might be!

Date:

Astronomy

Mar. 25, 2015 Rise Set
Actual Time 6:49 AM CDT 7:12 PM CDT
Civil Twilight 6:20 AM CDT 7:41 PM CDT
Nautical Twilight 5:47 AM CDT 8:15 PM CDT
Astronomical Twilight 5:12 AM CDT 8:50 PM CDT
Moon 10:28 AM CDT (3/25) 12:25 AM CDT (3/25)
Length of Visible Light 13h 20m
Length of Day
12h 23m
Waxing Crescent, 34% of the Moon is Illuminated
Mar 25
Waxing Crescent
Mar 27
First Quarter
Apr 4
Full
Apr 11
Last Quarter
Apr 18
New

Hourly Weather History & Observations

Time (CDT) Temp. Windchill Dew Point Humidity Pressure Visibility Wind Dir Wind Speed Gust Speed Precip Events Conditions
12:15 AM 33.6 °F 23.3 °F 22.1 °F 63% 29.91 in 10.0 mi East 16.1 mph - N/A   Overcast
12:35 AM 34.2 °F 23.6 °F 22.3 °F 62% 29.89 in 10.0 mi East 17.3 mph 20.7 mph N/A   Overcast
12:55 AM 33.3 °F 22.1 °F 25.5 °F 73% 29.88 in 4.0 mi East 18.4 mph 24.2 mph N/A Rain Light Rain
1:15 AM 32.9 °F 25.9 °F 27.5 °F 81% 29.91 in 3.0 mi SE 8.1 mph - 0.02 in   Overcast
1:35 AM 32.2 °F 24.4 °F 29.1 °F 88% 29.88 in 3.0 mi East 9.2 mph - 0.06 in   Overcast
1:55 AM 32.0 °F 25.6 °F 30.0 °F 92% 29.89 in 2.5 mi ESE 6.9 mph - 0.10 in   Overcast
2:15 AM 32.0 °F 25.6 °F 30.6 °F 94% 29.87 in 2.0 mi ESE 6.9 mph - 0.01 in   Overcast
2:35 AM 32.0 °F 26.4 °F 30.7 °F 95% 29.87 in 1.8 mi SE 5.8 mph - 0.03 in   Overcast
2:55 AM 32.0 °F 28.7 °F 31.1 °F 96% 29.86 in 2.0 mi SE 3.5 mph - 0.04 in   Overcast
3:15 AM 32.0 °F 25.6 °F 31.1 °F 96% 29.84 in 2.0 mi SE 6.9 mph - N/A   Overcast
3:35 AM 32.0 °F 27.5 °F 31.1 °F 96% 29.82 in 4.0 mi ESE 4.6 mph - N/A   Overcast
3:55 AM 32.0 °F 26.4 °F 30.9 °F 96% 29.81 in 2.0 mi ESE 5.8 mph - 0.01 in Snow Light Snow
4:15 AM 32.0 °F 27.5 °F 30.9 °F 96% 29.81 in 2.5 mi ESE 4.6 mph - 0.01 in Snow Light Snow
4:35 AM 31.8 °F 28.5 °F 31.1 °F 97% 29.80 in 0.8 mi SE 3.5 mph - 0.02 in Snow Light Snow
4:55 AM 31.6 °F 28.3 °F 30.9 °F 97% 29.79 in 0.8 mi SE 3.5 mph - 0.03 in Snow Light Snow
5:15 AM 31.6 °F - 30.9 °F 97% 29.77 in 0.8 mi Calm Calm - 0.01 in Snow Light Snow
5:35 AM 31.6 °F - 31.1 °F 98% 29.77 in 1.2 mi Calm Calm - 0.01 in Snow Light Snow
5:55 AM 31.6 °F 28.3 °F 31.1 °F 98% 29.79 in 1.0 mi WSW 3.5 mph - 0.02 in Snow Light Snow
6:15 AM 31.5 °F - 31.1 °F 99% 29.77 in 1.2 mi Calm Calm - N/A Snow Light Snow
6:35 AM 31.5 °F 26.8 °F 31.1 °F 99% 29.78 in 1.2 mi WSW 4.6 mph - N/A   Overcast
6:55 AM 31.6 °F 27.0 °F 31.1 °F 98% 29.79 in 1.2 mi WSW 4.6 mph - N/A   Overcast
7:15 AM 31.8 °F 26.2 °F 31.1 °F 97% 29.81 in 2.0 mi WSW 5.8 mph - N/A   Overcast
7:35 AM 31.6 °F 26.0 °F 31.1 °F 98% 29.81 in 2.5 mi West 5.8 mph - N/A   Overcast
7:55 AM 31.6 °F 25.1 °F 30.9 °F 97% 29.80 in 2.5 mi WSW 6.9 mph - N/A   Overcast
8:15 AM 31.6 °F 23.1 °F 30.6 °F 96% 29.83 in 5.0 mi WSW 10.4 mph - N/A   Overcast
8:35 AM 31.8 °F 23.3 °F 30.2 °F 94% 29.85 in 5.0 mi WSW 10.4 mph - N/A   Overcast
8:55 AM 32.0 °F 24.2 °F 30.2 °F 93% 29.85 in 7.0 mi WSW 9.2 mph - N/A   Overcast
9:15 AM 32.0 °F 25.6 °F 30.2 °F 93% 29.85 in 7.0 mi WSW 6.9 mph - N/A   Overcast
9:35 AM 32.2 °F 25.0 °F 30.2 °F 92% 29.84 in 10.0 mi West 8.1 mph - N/A   Overcast
9:55 AM 32.4 °F 25.3 °F 30.2 °F 92% 29.84 in 10.0 mi West 8.1 mph - N/A   Overcast
10:15 AM 32.4 °F 23.0 °F 30.0 °F 91% 29.85 in 10.0 mi West 12.7 mph 17.3 mph N/A   Overcast
10:35 AM 32.4 °F 23.0 °F 30.2 °F 92% 29.86 in 10.0 mi WSW 12.7 mph 18.4 mph N/A   Overcast
10:55 AM 33.3 °F 24.1 °F 31.1 °F 92% 29.86 in 10.0 mi WSW 12.7 mph - N/A   Overcast
11:15 AM 33.6 °F 23.7 °F 31.8 °F 93% 29.87 in 7.0 mi SW 15.0 mph - N/A   Overcast
11:35 AM 34.0 °F 23.0 °F 32.0 °F 92% 29.87 in 7.0 mi SW 18.4 mph 21.9 mph N/A   Overcast
11:55 AM 34.7 °F 23.7 °F 32.4 °F 91% 29.88 in 5.0 mi SW 19.6 mph - N/A   Overcast
12:15 PM 34.7 °F 22.8 °F 32.4 °F 91% 29.90 in 7.0 mi SW 23.0 mph 27.6 mph N/A   Overcast
12:35 PM 34.7 °F 22.5 °F 32.2 °F 91% 29.90 in 5.0 mi SW 24.2 mph 29.9 mph N/A   Overcast
12:55 PM 34.9 °F 23.3 °F 32.4 °F 91% 29.90 in 7.0 mi SW 21.9 mph 26.5 mph N/A   Overcast
1:15 PM 35.6 °F 24.8 °F 32.7 °F 89% 29.91 in 7.0 mi WSW 19.6 mph 26.5 mph N/A   Overcast
1:35 PM 35.8 °F 25.1 °F 32.5 °F 88% 29.91 in 7.0 mi WSW 19.6 mph 28.8 mph N/A   Overcast
1:55 PM 36.5 °F 26.0 °F 32.9 °F 87% 29.90 in 10.0 mi WSW 19.6 mph 28.8 mph N/A   Overcast
2:15 PM 37.8 °F 27.1 °F 33.3 °F 84% 29.91 in 10.0 mi SW 21.9 mph 31.1 mph N/A   Overcast
2:35 PM 39.2 °F 28.7 °F 33.4 °F 80% 29.90 in 10.0 mi WSW 23.0 mph 32.2 mph N/A   Overcast
2:55 PM 39.4 °F 29.0 °F 33.3 °F 79% 29.91 in 10.0 mi SW 23.0 mph 31.1 mph N/A   Overcast
3:15 PM 39.7 °F 29.0 °F 33.1 °F 77% 29.91 in 10.0 mi SW 25.3 mph 33.4 mph N/A   Overcast
3:35 PM 40.8 °F 30.7 °F 33.1 °F 74% 29.91 in 10.0 mi WSW 24.2 mph 27.6 mph N/A   Overcast
3:55 PM 41.9 °F 32.3 °F 32.7 °F 70% 29.91 in 10.0 mi WSW 23.0 mph 33.4 mph N/A   Overcast
4:15 PM 43.0 °F 33.5 °F 33.3 °F 69% 29.90 in 10.0 mi WSW 24.2 mph 31.1 mph N/A   Mostly Cloudy
4:35 PM 43.5 °F 35.2 °F 33.4 °F 68% 29.90 in 10.0 mi WSW 19.6 mph 27.6 mph N/A   Scattered Clouds
4:55 PM 43.9 °F 35.0 °F 32.7 °F 65% 29.91 in 10.0 mi WSW 23.0 mph 28.8 mph N/A   Scattered Clouds
5:15 PM 44.2 °F 35.9 °F 31.8 °F 62% 29.92 in 10.0 mi WSW 20.7 mph 28.8 mph N/A   Scattered Clouds
5:35 PM 44.1 °F 35.9 °F 31.6 °F 62% 29.92 in 10.0 mi WSW 19.6 mph 25.3 mph N/A   Scattered Clouds
5:55 PM 43.7 °F 36.3 °F 31.1 °F 61% 29.92 in 10.0 mi WSW 16.1 mph 19.6 mph N/A   Scattered Clouds
6:15 PM 42.6 °F 35.6 °F 29.7 °F 60% 29.94 in 10.0 mi WSW 13.8 mph 25.3 mph N/A   Scattered Clouds
6:35 PM 41.2 °F 33.7 °F 30.2 °F 65% 29.95 in 10.0 mi WSW 13.8 mph - N/A   Clear
6:55 PM 40.3 °F 32.2 °F 29.7 °F 66% 29.95 in 10.0 mi West 15.0 mph 19.6 mph N/A   Clear
7:15 PM 39.6 °F 32.5 °F 29.3 °F 67% 29.95 in 10.0 mi WSW 11.5 mph - N/A   Clear
7:35 PM 38.8 °F 33.8 °F 29.3 °F 69% 29.96 in 10.0 mi West 6.9 mph - N/A   Clear
7:55 PM 37.8 °F 31.3 °F 28.8 °F 70% 29.96 in 10.0 mi West 9.2 mph - N/A   Scattered Clouds
8:15 PM 37.6 °F 32.3 °F 28.4 °F 69% 29.97 in 10.0 mi West 6.9 mph - N/A   Mostly Cloudy
8:35 PM 37.4 °F 32.8 °F 28.8 °F 71% 29.97 in 10.0 mi West 5.8 mph - N/A   Overcast
8:55 PM 37.0 °F 28.9 °F 28.2 °F 70% 29.97 in 10.0 mi West 12.7 mph 17.3 mph N/A   Overcast
9:15 PM 36.5 °F 29.2 °F 26.6 °F 67% 29.99 in 10.0 mi West 10.4 mph 21.9 mph N/A   Overcast
9:35 PM 36.1 °F 28.2 °F 26.6 °F 68% 29.99 in 10.0 mi West 11.5 mph 18.4 mph N/A   Overcast
9:55 PM 36.0 °F 28.5 °F 26.6 °F 69% 29.99 in 10.0 mi West 10.4 mph 17.3 mph N/A   Overcast
10:15 PM 35.8 °F 28.3 °F 26.2 °F 68% 29.99 in 10.0 mi West 10.4 mph 17.3 mph N/A   Overcast
10:35 PM 35.6 °F 28.0 °F 26.1 °F 68% 29.98 in 10.0 mi West 10.4 mph 19.6 mph N/A   Overcast
10:55 PM 35.4 °F 28.4 °F 26.1 °F 69% 29.99 in 10.0 mi West 9.2 mph - N/A   Overcast
11:15 PM 35.2 °F 28.8 °F 25.9 °F 69% 29.98 in 10.0 mi West 8.1 mph 18.4 mph N/A   Overcast
11:35 PM 35.2 °F 27.6 °F 25.7 °F 68% 29.98 in 10.0 mi West 10.4 mph 16.1 mph N/A   Overcast
11:55 PM 35.2 °F 27.1 °F 25.7 °F 68% 30.00 in 10.0 mi WSW 11.5 mph 17.3 mph N/A   Overcast